Content
SEND FEEDBACK

Daily
Averages
Monthly
Summary
Canada

PRINCE RUPERT, BRITISH COLUMBIA


Home > North America > Canada > British Columbia
Elevation: 111 feet     Latitude: 54 17N     Longitude: 130 27W

WEATHER
 
SELECT A DAY
Number of Records: 356,725;   Date Range: 1/1/95 - 11/20/14
 
SHARE

PRINT THIS DATA

[ ← Previous Day ]
WEATHER ALMANAC - APRIL 10, 2013
[ Next Day → ]
[ °C ]   °F
Weather ElementAverageHighLow
Temperature40.9 °F42.8 °F (12:09 am)37.4 °F (11:54 pm)
Dewpoint36.9 °F41 °F (12:09 am)26.6 °F (12:00 pm)
Humidity86.6 %100 % (1:00 am)53 % (12:00 pm)
Barometer29.96 in30.24 in (11:54 pm)29.86 in (12:09 am)
Wind Speed5.1 mph11.5 mph (10:51 pm)
Wind Gust18.4 mph (5:00 pm)
Weather ElementAverage
Visibility6 mi
Wind DirectionS (178.5 °)

Weather ElementTotal
Precipitation---
Heating Degree Days24.9 (Base 65)
Averaged from 59 records on April 10, 2013
WEATHER CONDITIONS BREAKOUT
WIND DIRECTION BREAKOUT
WEATHER BY HOUR - APRIL 10, 2013
[ °C ]   °F
Local TimeTemperatureDewpointHumidityBarometerVisibilityWind DirectionWind SpeedGust SpeedPrecipitationEventsConditions
12:09 AM42.8 °F41.0 °F93 %29.86 in2.5 miCalmRainLight Rain
12:37 AM42.8 °F41.0 °F93 %29.86 in3.0 miCalmRainLight Rain
12:53 AM42.8 °F41.0 °F93 %29.86 in3.0 miCalmRainLight Rain
1:00 AM41.0 °F41.0 °F100 %29.86 in5.0 miVariable2.3 mphRainLight Rain
1:01 AM41.0 °F41.0 °F100 %29.86 in6.0 miVariable2.3 mphRainLight Rain
2:00 AM41.0 °F41.0 °F100 %29.86 in6.0 miVariable4.6 mphRainLight Rain
2:05 AM41.0 °F41.0 °F100 %29.86 in6.0 miNNE (30°)3.5 mphRainLight Rain
2:09 AM41.0 °F41.0 °F100 %29.86 in5.0 miNE (40°)3.5 mphRainLight Rain
2:28 AM41.0 °F41.0 °F100 %29.86 in2.2 miNE (40°)5.8 mphRainLight Rain
2:45 AM41.0 °F41.0 °F100 %29.86 in3.0 miNE (50°)3.5 mphRainLight Rain
2:52 AM41.0 °F41.0 °F100 %29.86 in3.0 miENE (60°)3.5 mphRainLight Rain
2:55 AM41.0 °F41.0 °F100 %29.86 in3.0 miNE (50°)3.5 mphRainLight Rain
3:00 AM41.0 °F39.2 °F93 %29.86 in5.0 miNE (50°)3.5 mphRainLight Rain
3:01 AM41.0 °F41.0 °F100 %29.86 in6.0 miNE (50°)3.5 mphRainLight Rain
3:20 AM41.0 °F41.0 °F100 %29.86 in8.0 miVariable2.3 mphRainLight Rain
3:27 AM41.0 °F39.2 °F93 %29.86 in5.0 miVariable2.3 mphRainLight Rain
3:39 AM41.0 °F41.0 °F100 %29.86 in2.5 miCalmRainLight Rain
3:43 AM41.0 °F41.0 °F100 %29.86 in1.8 miVariable2.3 mphRainLight Rain
3:44 AM41.0 °F41.0 °F100 %29.86 in1.8 miVariable2.3 mphRainLight Rain
3:59 AM41.0 °F39.2 °F93 %29.87 in1.2 miCalmRainLight Rain
4:00 AM41.0 °F39.2 °F93 %29.87 in1.2 miCalmRainLight Rain
4:01 AM41.0 °F39.2 °F93 %29.87 in1.2 miVariable2.3 mphRainLight Rain
4:12 AM41.0 °F41.0 °F100 %29.87 in1.8 miWNW (300°)6.9 mphRainLight Rain
4:16 AM41.0 °F41.0 °F100 %29.87 in2.0 miNorth (10°)8.1 mphRainLight Rain
4:20 AM41.0 °F39.2 °F93 %29.87 in2.0 miNNW (340°)6.9 mphRainLight Rain
4:24 AM41.0 °F39.2 °F93 %29.87 in2.5 miNNW (340°)5.8 mphRainLight Rain
4:29 AM41.0 °F39.2 °F93 %29.87 in3.0 miNorth (350°)4.6 mphRainLight Rain
4:42 AM41.0 °F39.2 °F93 %29.88 in3.0 miNNW (330°)2.3 mphRainLight Rain
4:45 AM41.0 °F39.2 °F93 %29.88 in2.5 miNW (310°)2.3 mphRainLight Rain
4:48 AM41.0 °F39.2 °F93 %29.88 in3.0 miVariable2.3 mphRainLight Rain
5:00 AM41.0 °F41.0 °F100 %29.88 in5.0 miNW (320°)3.5 mphRainLight Rain
5:05 AM41.0 °F41.0 °F100 %29.88 in6.0 miVariable2.3 mphRainLight Rain
5:21 AM41.0 °F39.2 °F93 %29.88 in9.0 miNW (310°)5.8 mphRainLight Rain
5:29 AM41.0 °F39.2 °F93 %29.89 in9.0 miNW (310°)5.8 mphOvercast
5:31 AM41.0 °F39.2 °F93 %29.89 in9.0 miNW (310°)6.9 mphOvercast
5:43 AM41.0 °F37.4 °F87 %29.89 in9.0 miNW (310°)8.1 mphOvercast
6:00 AM41.0 °F37.4 °F87 %29.90 in9.0 miNW (320°)5.8 mphOvercast
7:00 AM39.2 °F35.6 °F87 %29.93 in9.0 miNW (310°)4.6 mphOvercast
8:00 AM39.2 °F32.0 °F75 %29.96 in9.0 miWNW (300°)4.6 mphOvercast
9:00 AM41.0 °F30.2 °F65 %29.98 in9.0 miWNW (290°)6.9 mphOvercast
10:00 AM41.0 °F30.2 °F65 %30.00 in9.0 miNNW (340°)8.1 mphOvercast
11:00 AM41.0 °F28.4 °F61 %30.02 in9.0 miNW (310°)4.6 mphOvercast
12:00 PM42.8 °F26.6 °F53 %30.03 in9.0 miWest (280°)8.1 mphOvercast
1:00 PM41.0 °F26.6 °F57 %30.06 in9.0 miWest (280°)9.2 mphOvercast
2:00 PM42.8 °F28.4 °F57 %30.08 in9.0 miWest (270°)6.9 mphMostly Cloudy
3:00 PM42.8 °F32.0 °F66 %30.10 in9.0 miWNW (290°)10.4 mphPartly Cloudy
4:00 PM42.8 °F30.2 °F61 %30.11 in9.0 miWNW (290°)9.2 mphMostly Cloudy
5:00 PM41.0 °F30.2 °F65 %30.13 in9.0 miWest (280°)8.1 mph18.4 mphScattered Clouds
6:00 PM41.0 °F32.0 °F70 %30.14 in9.0 miWest (270°)5.8 mphOvercast
7:00 PM41.0 °F32.0 °F70 %30.16 in9.0 miWest (280°)4.6 mphOvercast
8:00 PM41.0 °F30.2 °F65 %30.17 in9.0 miWest (270°)8.1 mphOvercast
9:00 PM39.2 °F30.2 °F70 %30.18 in9.0 miWest (270°)8.1 mphOvercast
10:00 PM39.2 °F32.0 °F75 %30.21 in9.0 miWest (280°)6.9 mphPartly Cloudy
10:43 PM39.2 °F33.8 °F81 %30.22 in9.0 miWest (270°)9.2 mphMostly Cloudy
10:44 PM39.2 °F33.8 °F81 %30.22 in9.0 miWest (280°)8.1 mphMostly Cloudy
10:51 PM39.2 °F33.8 °F81 %30.22 in9.0 miWest (280°)11.5 mph17.3 mphMostly Cloudy
10:53 PM39.2 °F33.8 °F81 %30.22 in9.0 miWest (280°)10.4 mph17.3 mphMostly Cloudy
11:00 PM39.2 °F33.8 °F81 %30.23 in9.0 miWest (280°)10.4 mph17.3 mphOvercast
11:54 PM37.4 °F33.8 °F87 %30.24 in9.0 miWNW (300°)8.1 mphRainLight Rain
Hourly data recorded from CYPR, located miles away from Prince Rupert, British Columbia







STORIES FROM OUR PARTNERS